�������C�����ː����j�^�v���󋵏��
Date,Time,Cs137(Bq/L),Cs134(Bq/L),�S��(Bq/L)
2017/01/20,00:00,0.86,0.14,ND
2017/01/20,00:10,0.88,0.13,ND
2017/01/20,00:20,0.86,0.14,ND
2017/01/20,00:30,0.85,0.13,ND
2017/01/20,00:40,0.86,0.12,ND
2017/01/20,00:50,0.99,0.11,ND
2017/01/20,01:00,0.96,0.11,ND
2017/01/20,01:10,0.96,0.10,ND
2017/01/20,01:20,1.0,0.10,ND
2017/01/20,01:30,1.0,0.11,ND
2017/01/20,01:40,0.89,0.15,ND
2017/01/20,01:50,1.0,0.094,ND
2017/01/20,02:00,1.0,0.090,ND
2017/01/20,02:10,1.0,0.097,10
2017/01/20,02:20,1.0,0.10,ND
2017/01/20,02:30,1.0,0.091,9.7
2017/01/20,02:40,1.0,0.10,ND
2017/01/20,02:50,0.96,0.13,ND
2017/01/20,03:00,0.99,0.12,ND
2017/01/20,03:10,0.97,0.12,ND
2017/01/20,03:20,0.96,0.11,ND
2017/01/20,03:30,0.94,0.12,ND
2017/01/20,03:40,1.1,0.080,ND
2017/01/20,03:50,0.93,0.12,ND
2017/01/20,04:00,1.0,0.087,ND
2017/01/20,04:10,0.91,0.13,9.7
2017/01/20,04:20,1.0,0.097,10
2017/01/20,04:30,1.0,0.093,12
2017/01/20,04:40,0.89,0.12,13
2017/01/20,04:50,0.98,0.087,14
2017/01/20,05:00,0.97,0.092,11
2017/01/20,05:10,0.96,0.085,ND
2017/01/20,05:20,0.97,0.079,9.0
2017/01/20,05:30,0.97,0.072,ND
2017/01/20,05:40,0.99,0.066,ND
2017/01/20,05:50,0.97,0.068,ND
2017/01/20,06:00,0.96,0.068,ND
2017/01/20,06:10,0.96,0.062,ND
2017/01/20,06:20,0.82,0.10,ND
2017/01/20,06:30,0.81,0.11,ND
2017/01/20,06:40,0.78,0.11,ND
2017/01/20,06:50,0.78,0.10,ND
2017/01/20,07:00,0.88,0.065,ND
2017/01/20,07:10,0.87,0.070,ND
2017/01/20,07:20,0.86,0.064,ND
2017/01/20,07:30,0.87,0.063,ND
2017/01/20,07:40,0.87,0.061,ND
2017/01/20,07:50,0.85,0.075,ND
2017/01/20,08:00,0.86,0.068,ND
2017/01/20,08:10,0.86,0.069,ND
2017/01/20,08:20,0.89,0.070,9.3
2017/01/20,08:30,0.90,0.072,8.8
2017/01/20,08:40,0.92,0.079,ND
2017/01/20,08:50,0.94,0.066,ND
2017/01/20,09:00,0.94,0.065,ND
2017/01/20,09:10,0.94,0.076,ND
2017/01/20,09:20,0.93,0.072,ND
2017/01/20,09:30,0.90,0.079,ND
2017/01/20,09:40,0.90,0.071,ND
2017/01/20,09:50,0.91,0.071,11
2017/01/20,10:00,0.90,0.066,11
2017/01/20,10:10,0.90,0.066,12
2017/01/20,10:20,0.91,0.060,11
2017/01/20,10:30,0.93,0.056,11
2017/01/20,10:40,0.93,0.061,10
2017/01/20,10:50,0.78,0.10,11
2017/01/20,11:00,0.77,0.11,9.0
2017/01/20,11:10,0.77,0.11,10
2017/01/20,11:20,0.77,0.11,11
2017/01/20,11:30,0.78,0.11,11
2017/01/20,11:40,0.78,0.11,11
2017/01/20,11:50,0.90,0.091,12
2017/01/20,12:00,0.92,0.092,12
2017/01/20,12:10,0.97,0.092,13
2017/01/20,12:20,0.97,0.092,12
2017/01/20,12:30,0.94,0.098,12
2017/01/20,12:40,0.98,0.084,12
2017/01/20,12:50,0.89,0.11,12
2017/01/20,13:00,0.88,0.10,15
2017/01/20,13:10,0.86,0.11,13
2017/01/20,13:20,0.83,0.12,16
2017/01/20,13:30,0.83,0.12,19
2017/01/20,13:40,0.79,0.13,21
2017/01/20,13:50,0.80,0.13,21
2017/01/20,14:00,0.80,0.15,17
2017/01/20,14:10,0.81,0.15,19
2017/01/20,14:20,0.84,0.15,14
2017/01/20,14:30,0.85,0.15,12
2017/01/20,14:40,0.97,0.12,9.9
2017/01/20,14:50,0.95,0.12,ND
2017/01/20,15:00,0.96,0.11,9.5
2017/01/20,15:10,0.93,0.11,9.7
2017/01/20,15:20,0.92,0.11,13
2017/01/20,15:30,0.89,0.11,15
2017/01/20,15:40,0.90,0.10,16
2017/01/20,15:50,0.79,0.14,17
2017/01/20,16:00,0.77,0.14,16
2017/01/20,16:10,0.76,0.14,15
2017/01/20,16:20,0.77,0.14,14
2017/01/20,16:30,0.78,0.14,12
2017/01/20,16:40,0.79,0.13,12
2017/01/20,16:50,0.94,0.092,11
2017/01/20,17:00,0.95,0.092,10
2017/01/20,17:10,0.98,0.085,10
2017/01/20,17:20,0.99,0.081,9.7
2017/01/20,17:30,0.99,0.072,12
2017/01/20,17:40,0.97,0.083,10
2017/01/20,17:50,0.94,0.091,ND
2017/01/20,18:00,0.85,0.12,11
2017/01/20,18:10,0.83,0.12,10
2017/01/20,18:20,0.93,0.097,11
2017/01/20,18:30,0.80,0.14,9.3
2017/01/20,18:40,0.91,0.098,9.3
2017/01/20,18:50,0.92,0.096,10
2017/01/20,19:00,0.81,0.14,9.2
2017/01/20,19:10,0.92,0.092,10
2017/01/20,19:20,0.93,0.086,13
2017/01/20,19:30,0.92,0.092,13
2017/01/20,19:40,0.90,0.099,13
2017/01/20,19:50,0.80,0.13,14
2017/01/20,20:00,0.90,0.097,16
2017/01/20,20:10,0.93,0.097,15
2017/01/20,20:20,0.83,0.14,11
2017/01/20,20:30,0.95,0.10,11
2017/01/20,20:40,0.98,0.095,13
2017/01/20,20:50,0.87,0.13,10
2017/01/20,21:00,0.87,0.13,9.6
2017/01/20,21:10,0.97,0.11,10
2017/01/20,21:20,0.99,0.11,10
2017/01/20,21:30,1.0,0.12,11
2017/01/20,21:40,1.0,0.13,11
2017/01/20,21:50,1.0,0.14,12
2017/01/20,22:00,1.0,0.14,12
2017/01/20,22:10,1.0,0.14,11
2017/01/20,22:20,1.0,0.14,12
2017/01/20,22:30,0.92,0.18,11
2017/01/20,22:40,0.95,0.18,12
2017/01/20,22:50,0.97,0.17,13
2017/01/20,23:00,1.0,0.16,13
2017/01/20,23:10,1.0,0.15,13
2017/01/20,23:20,1.0,0.15,14
2017/01/20,23:30,1.0,0.16,12
2017/01/20,23:40,1.0,0.16,9.0
2017/01/20,23:50,1.0,0.17,10
